Epoch = 2027 June 4.0 TT T = 2027 June 17.42375 TT Peri. = 97.52478 e = 0.0161466 Node = 0.64841 2000.0 q = 6.1270803 AU Incl. = 6.78039 a = 6.2276355 AU n = 0.06341899 P = 15.54 years
H = 14.0 G = 0.15